Regional Weather Roundup
Issued by NWS

Home | Current Version | Previous Version | Graphics & Text | Print | Product List | Glossary On
Versions: 1 2 3 4 5 6 7 8 9 10 11 12 13 14 15 16 17 18 19 20 21 22 23 24 25 26 27 28 29 30 31 32 33 34 35 36 37 38 39 40 41 42 43 44 45 46 47 48 49 50
000
ASUS43 KFSD 070202
RWRSD

WEATHER ROUNDUP FOR SOUTH DAKOTA
NATIONAL WEATHER SERVICE SIOUX FALLS SD
800 PM CST FRI MAR 06 2015

NOTE: "FAIR" INDICATES FEW OR NO CLOUDS BELOW 12,000 FEET WITH NO
SIGNIFICANT WEATHER AND/OR OBSTRUCTIONS TO VISIBILITY.


SDZ001>005-009-010-012>017-070300-
NORTHWEST AND NORTH CENTRAL SOUTH DAKOTA

CITY           SKY/WX    TMP DP  RH WIND       PRES   REMARKS
BUFFALO          N/A     41  20  43 NW14      29.99R
FAITH            N/A     44  18  35 W7        30.04R
MOBRIDGE       MOCLDY    43  21  41 CALM      29.98R
$$

SDZ012>016-024>037-041>051-057-063-072>074-070300-
SOUTHWEST AND SOUTH CENTRAL SOUTH DAKOTA

CITY           SKY/WX    TMP DP  RH WIND       PRES   REMARKS
RAPID CTY ARPT CLEAR     39  22  50 NW10      30.10S
PIERRE         MOCLDY    41  25  53 S7        30.01S
CUSTER         PTCLDY    40  18  41 W10       30.14R
ELLSWORTH AFB  CLEAR     37  22  55 W7        30.09S
PHILIP         CLEAR     44  19  36 W9        30.07R
PINE RIDGE     CLEAR     41  24  51 W9        30.14R
SPEARFISH      FAIR      41  23  48 W10       30.11S
WINNER         FAIR      46  20  35 W12       30.07R
$$

SDZ004>011-016>023-039-040-070300-
NORTHEAST SOUTH DAKOTA

CITY           SKY/WX    TMP DP  RH WIND       PRES   REMARKS
ABERDEEN       MOCLDY    33  26  75 S13       30.01F WCI  24
WATERTOWN      CLOUDY    32  25  75 S7        30.02F WCI  26
SISSETON         N/A     34  24  67 S6        29.99  WCI  29
$$

SDZ017-020-022-023-036>040-048>070-070300-
SOUTHEAST SOUTH DAKOTA

CITY           SKY/WX    TMP DP  RH WIND       PRES   REMARKS
SIOUX FALLS    PTCLDY    32  24  72 CALM      30.07F
HURON          MOCLDY    35  24  64 SE7       30.03F WCI  29
MITCHELL       PTCLDY    36  20  52 SE8       30.06F
YANKTON        CLOUDY    43  19  39 E5        30.10R
$$

ABBREVIATIONS USED IN REMARKS
   TC - TEMPERATURE IN CELSIUS
  WCI - WIND CHILL INDEX
   HX - HEAT INDEX
  VSB - VISIBILITY



USA.gov is the U.S. government's official web portal to all federal, state and local government web resources and services.